Location: Table Mountain
(47.2500°N, 120.5778°W)
Time: 11:58:32
(UTC-07:00)

ISS - Pass Details

Date: 12 October 2017
Orbit: 401 x 408 km, 51.6° (Epoch: 23 October)

Event Time Altitude Azimuth Distance (km) Brightness Sun altitude
Rises 19:38:33 0° 293° (WNW) 2,322 1.5 -14.2°
Reaches altitude 10° 19:40:40 10° 287° (WNW) 1,461 0.3 -14.5°
Maximum altitude 19:43:50 46° 213° (SSW) 552 -3.0 -15.1°
Enters shadow 19:45:39 21° 148° (SSE) 956 -2.3 -15.4°
